Actual water levels and discharges of Vltava river

Vraňany

Date and time (UTC) H (cm) Q (m³/s)
23. 4. 2024 19:50 25 63.7
23. 4. 2024 19:00 28 67
23. 4. 2024 18:00 33 72
23. 4. 2024 17:00 29 68
23. 4. 2024 16:00 27 66
23. 4. 2024 15:00 20 59
23. 4. 2024 14:00 25 64
23. 4. 2024 13:00 28 67
23. 4. 2024 12:00 21 60
23. 4. 2024 11:00 19 58
23. 4. 2024 10:00 43 82
23. 4. 2024 09:00 49 88
23. 4. 2024 08:00 44 83
23. 4. 2024 07:00 39 78

H - water level, Q - discharge

Praha-Chuchle

Date and time (UTC) H (cm) Q (m³/s)
23. 4. 2024 19:50 59 70
23. 4. 2024 19:00 59 70
23. 4. 2024 18:00 60 73
23. 4. 2024 17:00 59 70
23. 4. 2024 16:00 60 73
23. 4. 2024 15:00 59 70
23. 4. 2024 14:00 59 70
23. 4. 2024 13:00 59 70
23. 4. 2024 12:00 57 64
23. 4. 2024 11:00 56 62
23. 4. 2024 10:00 58 67
23. 4. 2024 09:00 60 73
23. 4. 2024 08:00 59 70
23. 4. 2024 07:00 59 70

H - water level, Q - discharge
more information

VD Vrané nad Vltavou

Date and time (UTC) H (m n. m.) Q (m³/s)
23. 4. 2024 20:00 199.7 34.7
23. 4. 2024 19:00 199.65 35
23. 4. 2024 18:00 199.69 35
23. 4. 2024 17:00 199.74 35
23. 4. 2024 16:00 199.76 35
23. 4. 2024 15:00 199.79 35
23. 4. 2024 14:00 199.81 35
23. 4. 2024 13:00 199.85 35
23. 4. 2024 12:00 199.89 35
23. 4. 2024 11:00 199.92 35
23. 4. 2024 10:00 199.94 35
23. 4. 2024 09:00 199.98 35
23. 4. 2024 08:00 199.85 35

H - water level, Q - outflow

VD Štěchovice

Date and time (UTC) H (m n. m.) Q (m³/s)
23. 4. 2024 20:00 217.22 -
23. 4. 2024 19:00 217.18 -
23. 4. 2024 18:00 216.90 0
23. 4. 2024 17:00 216.91 -
23. 4. 2024 16:00 216.91 0
23. 4. 2024 15:00 216.92 -
23. 4. 2024 14:00 216.92 0
23. 4. 2024 13:00 216.93 -
23. 4. 2024 12:00 216.92 -
23. 4. 2024 11:00 216.90 -
23. 4. 2024 10:00 216.88 -
23. 4. 2024 09:00 216.60 -
23. 4. 2024 08:00 216.53 150

H - water level, Q - outflow

VD Slapy

Date and time (UTC) H (m n. m.) Q (m³/s)
23. 4. 2024 20:00 269.79 92.2
23. 4. 2024 19:00 269.83 83
23. 4. 2024 18:00 269.83 30
23. 4. 2024 17:00 269.85 0
23. 4. 2024 16:00 269.83 0
23. 4. 2024 15:00 269.83 0
23. 4. 2024 14:00 269.83 0
23. 4. 2024 13:00 269.82 0
23. 4. 2024 12:00 269.84 6
23. 4. 2024 11:00 269.83 19
23. 4. 2024 10:00 269.89 103
23. 4. 2024 09:00 269.85 86
23. 4. 2024 08:00 269.79 91

H - water level, Q - outflow

VD Kamýk

Date and time (UTC) H (m n. m.) Q (m³/s)
23. 4. 2024 20:00 283.12 -
23. 4. 2024 19:00 283.26 -
23. 4. 2024 18:00 283.30 -
23. 4. 2024 17:00 283.31 -
23. 4. 2024 16:00 283.27 -
23. 4. 2024 15:00 283.27 -
23. 4. 2024 14:00 283.31 -
23. 4. 2024 13:00 283.29 -
23. 4. 2024 12:00 283.24 -
23. 4. 2024 11:00 283.31 -
23. 4. 2024 10:00 283.34 -
23. 4. 2024 09:00 283.28 -
23. 4. 2024 08:00 283.36 -

H - water level, Q - outflow

VD Orlík

Date and time (UTC) H (m n. m.) Q (m³/s)
23. 4. 2024 20:00 342.33 0
23. 4. 2024 19:00 342.32 0
23. 4. 2024 18:00 342.31 0
23. 4. 2024 17:00 342.31 0
23. 4. 2024 16:00 342.29 0
23. 4. 2024 15:00 342.30 0
23. 4. 2024 14:00 342.28 0
23. 4. 2024 13:00 342.28 0
23. 4. 2024 12:00 342.28 0
23. 4. 2024 11:00 342.24 0
23. 4. 2024 10:00 342.25 0
23. 4. 2024 09:00 342.23 210
23. 4. 2024 08:00 342.27 214

H - water level, Q - outflow

VD Kořensko

Date and time (UTC) H (m n. m.) Q (m³/s)
23. 4. 2024 20:00 352.56 -
23. 4. 2024 19:00 352.53 24
23. 4. 2024 18:00 352.49 19
23. 4. 2024 17:00 352.49 -
23. 4. 2024 16:00 352.48 19
23. 4. 2024 15:00 352.48 -
23. 4. 2024 14:00 352.48 19
23. 4. 2024 13:00 352.47 -
23. 4. 2024 12:00 352.47 19
23. 4. 2024 11:00 352.47 -
23. 4. 2024 10:00 352.48 -
23. 4. 2024 09:00 352.51 -
23. 4. 2024 08:00 352.55 70

H - water level, Q - outflow

VD Hněvkovice I - přehrada

Date and time (UTC) H (m n. m.) Q (m³/s)
- - -

H - water level, Q - outflow

České Budějovice

Date and time (UTC) H (cm) Q (m³/s)
23. 4. 2024 19:40 108 28.1
23. 4. 2024 19:00 109 29
23. 4. 2024 18:00 108 28
23. 4. 2024 17:00 108 28
23. 4. 2024 16:00 108 28
23. 4. 2024 15:00 108 28
23. 4. 2024 14:00 108 29
23. 4. 2024 13:00 108 28
23. 4. 2024 12:00 108 28
23. 4. 2024 11:00 106 28
23. 4. 2024 10:00 107 27
23. 4. 2024 09:00 110 29
23. 4. 2024 08:00 107 28
23. 4. 2024 07:00 107 27

H - water level, Q - discharge
more information

Vyšší Brod

Date and time (UTC) H (cm) Q (m³/s)
23. 4. 2024 19:40 106 19.5
23. 4. 2024 19:00 106 20
23. 4. 2024 18:00 106 20
23. 4. 2024 17:00 106 20
23. 4. 2024 16:00 107 20
23. 4. 2024 15:00 107 20
23. 4. 2024 14:00 108 20
23. 4. 2024 13:00 108 20
23. 4. 2024 12:00 108 20
23. 4. 2024 11:00 109 21
23. 4. 2024 10:00 109 21
23. 4. 2024 09:00 109 21
23. 4. 2024 08:00 108 20
23. 4. 2024 07:00 108 20

H - water level, Q - discharge
Source data
Labe Basin Vltava Basin Povodí Moravy ČHMÚ
Po vodě ekologicky, levně a v pohodě
backgroung on backgroung off